Temp
11 11 11 11 11 11 12 12 12 12 12 12 12 12 12 12 12 12 12 12 12 12 12 12 12 12 12 11 11 11 11 11 11 11 11 11 11 11 11 11 10 10 10 10 10 10 10 10 10 9 9 9 9 9 9 9 9 8 8 8 8 8 7 7 7 7 7 7 6
11 11 11 11 11 11 11 11 11 12 12 12 12 12 12 12 12 12 12 12 12 12 12 12 12 11 11 11 11 11 11 11 11 11 10 10 11 11 11 10 10 10 10 10 10 10 10 10 9 9 9 9 9 9 9 9 8 8 8 8 8 7 7 7 7 7 7 7 6
11 11 11 11 11 11 11 11 11 11 12 12 11 11 11 11 11 11 11 12 12 11 11 11 11 11 11 11 11 11 11 11 10 10 10 10 10 10 10 10 10 10 10 10 10 10 10 9 9 9 9 9 9 9 9 8 8 8 8 8 8 7 7 7 7 7 7 6 6
11 11 11 11 11 11 11 12 12 12 12 12 11 11 11 11 11 11 11 11 11 11 11 11 11 11 11 11 11 11 11 10 10 10 10 10 10 10 10 10 10 10 10 10 10 10 9 9 9 9 9 9 9 9 8 8 8 8 8 8 7 7 7 7 7 7 6 6 6
11 11 11 11 11 12 12 12 12 12 12 12 11 11 11 11 11 11 11 11 11 11 11 11 11 11 11 10 10 10 10 10 10 10 10 10 10 10 10 10 10 10 10 10 9 9 9 9 9 9 9 9 9 9 8 8 8 8 8 7 7 7 7 7 7 7 6 6 6
12 11 11 11 11 11 11 12 12 12 12 11 11 11 11 11 11 11 11 11 11 11 11 11 11 11 10 10 10 10 10 10 10 10 10 10 10 10 10 10 10 9 9 9 9 9 9 9 9 9 9 9 9 8 8 8 8 8 7 7 7 7 7 7 7 6 6 6 6
11 11 11 11 11 11 11 11 11 11 11 11 11 11 11 11 11 11 11 11 11 11 11 11 11 11 10 10 10 10 10 10 10 10 10 10 10 10 9 9 9 9 9 9 9 9 9 9 9 9 9 9 8 8 8 8 8 7 7 7 7 7 7 7 6 6 6 6 6
11 11 11 11 11 11 11 11 11 11 11 11 11 11 11 11 11 11 11 11 11 11 11 11 11 11 10 10 10 10 10 10 10 10 10 10 10 10 9 9 9 9 9 9 9 9 9 9 9 9 9 8 8 8 8 8 7 7 7 7 7 7 7 6 6 6 6 6 6
11 11 11 11 11 11 11 11 11 11 11 11 11 11 11 11 11 11 11 11 11 11 11 11 11 11 10 10 10 10 10 10 10 10 10 10 10 10 9 9 9 9 9 9 9 9 9 9 9 8 8 8 8 8 8 7 7 7 7 7 7 6 6 6 6 6 6 6 6
11 11 11 11 11 11 11 11 11 11 11 11 11 11 11 11 11 11 11 11 11 11 11 11 11 10 10 10 10 10 10 10 10 10 10 10 10 9 9 9 9 9 9 9 9 9 9 9 8 8 8 8 8 8 7 7 7 7 7 6 6 6 6 6 6 6 6 6 5
11 11 11 11 11 11 11 11 11 11 11 11 11 11 11 11 11 11 11 11 11 11 11 11 10 10 10 10 10 10 10 10 10 10 10 9 9 9 9 9 9 9 9 9 9 9 8 8 8 8 8 8 8 7 7 7 7 7 6 6 6 6 6 6 6 6 5 5 5
11 11 11 11 11 11 11 11 11 10 10 10 10 10 10 10 11 11 10 10 10 10 10 10 10 10 10 10 10 9 9 9 9 9 9 9 9 9 9 9 9 9 9 9 9 8 8 8 8 8 8 8 7 7 7 7 7 6 6 6 6 6 6 6 6 5 5 5 5
11 11 11 11 11 11 11 11 10 10 10 10 10 10 10 10 10 10 10 10 10 10 10 10 10 10 9 9 9 9 9 9 9 9 9 9 9 9 9 9 9 9 8 8 8 8 8 8 8 8 7 7 7 7 7 6 6 6 6 6 6 6 6 6 6 5 5 5 5
11 11 11 11 11 11 11 10 10 10 10 10 10 10 10 10 10 10 10 10 10 10 10 9 9 9 9 9 9 9 9 9 9 9 9 9 9 9 9 9 8 8 8 8 8 8 8 8 8 7 7 7 7 7 6 6 6 6 6 6 6 6 6 5 5 5 5 5 5
11 11 11 11 11 11 10 10 10 10 10 10 10 10 10 10 10 10 10 10 9 9 9 9 9 9 9 9 9 9 9 9 9 9 9 9 9 9 8 8 8 8 8 8 8 8 8 8 7 7 7 7 7 6 6 6 6 6 6 6 5 5 5 5 5 5 5 5 5
11 11 11 11 10 10 10 10 10 10 10 10 10 10 10 10 10 10 9 9 9 9 9 9 9 9 9 9 9 9 9 9 9 9 8 8 8 8 8 8 8 8 8 8 8 8 7 7 7 7 7 7 6 6 6 6 6 6 5 5 5 5 5 5 5 5 5 5 5
11 11 10 10 10 10 10 10 10 10 10 10 10 10 10 9 9 9 9 9 9 9 9 9 9 8 8 8 8 8 8 8 8 8 8 8 8 8 8 8 8 8 8 8 7 7 7 7 7 7 7 6 6 6 6 6 6 5 5 5 5 5 5 5 5 5 5 5 5
11 10 10 10 10 10 10 10 10 10 10 10 9 9 9 9 9 9 9 9 9 9 9 8 8 8 8 8 8 8 8 8 8 8 8 8 8 8 8 8 8 7 7 7 7 7 7 7 7 7 6 6 6 6 6 6 5 5 5 5 5 5 5 5 5 5 5 4 4
10 10 10 10 10 10 10 9 9 9 9 9 9 9 9 9 9 9 9 9 9 9 9 8 8 8 8 8 8 8 8 8 8 8 8 8 8 8 7 7 7 7 7 7 7 7 7 7 7 6 6 6 6 6 6 5 5 5 5 5 5 5 5 5 5 4 4 4 4
10 10 10 10 10 9 9 9 9 9 9 9 9 9 9 9 9 9 9 9 9 9 8 8 8 8 8 8 8 8 8 8 8 7 7 7 7 7 7 7 7 7 7 7 7 7 7 7 6 6 6 6 6 6 5 5 5 5 5 5 5 5 5 5 4 4 4 4 4
10 10 10 10 9 9 9 9 9 9 9 9 9 9 9 9 9 9 9 9 9 8 8 8 8 8 8 8 8 7 7 7 7 7 7 7 7 7 7 7 7 7 7 7 7 7 6 6 6 6 6 6 6 5 5 5 5 5 5 5 5 5 5 4 4 4 4 4 4
10 10 9 9 9 9 9 9 9 9 9 9 8 8 8 8 8 8 8 8 8 8 8 8 8 7 7 7 7 7 7 7 7 7 7 7 7 7 7 7 7 7 7 7 7 6 6 6 6 6 6 5 5 5 5 5 5 5 5 5 5 5 4 4 4 4 4 4 4
10 9 9 9 9 9 9 9 8 8 8 8 8 8 8 8 8 8 8 8 8 8 7 7 7 7 7 7 7 7 7 6 6 6 6 6 6 6 6 6 7 7 7 6 6 6 6 6 6 6 5 5 5 5 5 5 5 5 5 5 5 4 4 4 4 4 4 3 3
9 9 9 9 9 8 8 8 8 8 8 8 8 8 8 8 8 8 7 7 7 7 7 7 7 7 7 7 6 6 6 6 6 6 6 6 6 6 6 6 6 6 6 6 6 6 6 6 6 5 5 5 5 5 5 5 5 5 5 4 4 4 4 4 4 3 3 3 3
9 9 8 8 8 8 8 8 8 8 8 8 7 7 7 7 7 7 7 7 7 7 7 7 7 6 6 6 6 6 6 6 6 6 6 6 6 6 6 6 6 6 6 6 6 6 6 5 5 5 5 5 5 5 5 5 5 5 4 4 4 4 4 4 3 3 3 3 2
9 8 8 8 8 8 7 7 7 7 7 7 7 7 7 7 7 7 7 7 7 7 6 6 6 6 6 6 6 6 6 6 6 6 6 6 6 6 6 6 6 6 6 6 6 6 5 5 5 5 5 5 5 5 5 5 5 4 4 4 4 4 3 3 3 3 3 2 2
8 8 8 8 7 7 7 7 7 7 7 7 7 7 7 7 7 7 7 6 6 6 6 6 6 6 6 6 6 6 6 6 6 6 6 6 6 6 6 6 6 6 6 6 6 5 5 5 5 5 5 5 5 5 5 5 5 4 4 4 4 3 3 3 3 3 2 2 2
8 8 8 7 7 7 7 7 7 7 7 7 7 7 7 7 6 6 6 6 6 6 6 6 6 5 5 5 6 6 6 6 6 6 6 6 6 6 6 6 6 6 6 6 5 5 5 5 5 5 5 5 5 5 5 4 4 4 4 4 3 3 3 3 2 2 2 2 1
9 8 8 7 7 7 7 7 6 6 6 7 6 6 6 6 6 6 6 6 6 5 5 5 5 5 5 5 5 5 5 5 5 5 6 6 6 6 6 6 6 6 6 6 5 5 5 5 5 5 5 5 4 4 4 4 4 3 3 3 3 3 2 2 2 2 1 1 1
9 8 8 7 7 7 7 6 6 6 6 6 6 6 6 6 6 6 5 5 5 5 5 5 5 5 5 5 5 5 5 5 5 5 5 6 6 6 6 6 6 6 5 5 5 5 5 5 5 5 5 4 4 4 3 3 3 3 3 2 2 2 2 1 1 1 1 0 0
9 8 8 7 7 7 7 6 6 6 6 6 6 6 6 6 5 5 5 5 5 5 5 5 5 5 5 5 5 5 5 5 5 5 5 5 5 5 5 5 5 5 5 5 5 5 5 5 5 5 4 4 4 3 3 3 2 2 2 2 1 1 1 1 0 0 -0 -0 -0
9 8 8 8 7 7 7 6 6 6 6 6 6 6 5 5 5 5 5 5 5 5 5 5 5 5 5 5 5 5 5 5 5 5 5 5 5 5 5 5 5 5 5 5 5 5 5 5 5 4 4 4 3 3 3 2 2 2 1 1 1 1 0 -0 -0 -0 -1 -1 -1
8 8 8 7 7 7 7 6 6 6 6 5 5 5 5 5 5 5 5 5 5 5 5 5 5 5 5 5 5 5 5 5 5 5 5 5 5 5 5 5 6 6 5 5 5 5 5 5 4 4 4 3 3 3 2 2 2 1 1 1 1 0 -0 -0 -1 -1 -1 -1 -1
8 8 8 7 7 7 6 6 6 6 5 5 5 5 5 5 5 5 5 5 5 5 5 5 5 5 5 5 5 5 5 5 5 5 5 5 5 5 5 5 5 5 5 5 5 5 4 4 4 4 3 3 2 2 2 2 1 1 1 0 0 0 -0 -1 -1 -1 -1 -1 -2
8 7 7 7 7 6 6 6 6 5 5 5 5 5 5 5 5 5 5 5 5 5 5 5 5 5 5 5 5 5 5 5 5 5 5 5 5 5 5 5 5 5 5 5 4 4 4 4 3 3 3 2 2 2 1 1 1 1 0 0 -0 -0 -0 -1 -1 -1 -1 -2 -2
7 7 7 7 6 6 6 6 5 5 5 5 5 5 5 5 5 5 5 5 5 5 5 5 5 5 5 5 5 5 5 5 5 5 5 5 5 5 5 5 5 5 5 4 4 4 3 3 3 2 2 2 1 1 1 1 0 0 -0 -0 -0 -1 -1 -1 -1 -1 -2 -2 -2
7 7 7 6 6 6 6 6 5 5 5 5 5 5 5 5 5 5 5 5 5 5 5 5 5 5 5 5 5 5 5 5 5 5 5 5 5 5 5 5 5 5 4 4 4 3 3 3 2 2 1 1 1 1 0 0 -0 -0 -1 -1 -1 -1 -1 -1 -1 -2 -2 -2 -2
7 7 6 6 6 6 6 6 5 5 5 5 5 5 5 5 5 5 5 5 5 5 5 5 5 5 5 5 5 5 5 5 5 5 5 5 5 5 4 4 4 4 4 3 3 3 2 2 1 1 1 0 0 -0 -0 -1 -1 -1 -1 -1 -1 -1 -1 -1 -2 -2 -2 -2 -2
6 6 6 6 6 6 6 6 5 5 5 5 5 5 5 5 5 5 5 5 5 5 5 5 5 5 5 5 5 5 5 5 5 5 5 5 4 4 4 4 4 3 3 3 2 2 1 1 1 0 -0 -0 -1 -1 -1 -1 -1 -1 -2 -2 -2 -2 -2 -2 -2 -2 -2 -3 -3
6 6 6 6 6 6 5 5 5 5 5 5 5 5 5 5 5 5 5 5 5 5 5 5 5 5 5 5 5 5 5 5 5 4 4 4 4 3 3 3 3 2 2 2 1 1 0 0 -0 -1 -1 -1 -1 -1 -2 -2 -2 -2 -2 -2 -2 -2 -2 -2 -3 -3 -3 -3 -3
6 6 6 6 6 5 5 5 5 5 5 5 5 5 5 5 5 5 5 5 5 5 5 5 5 5 5 5 5 5 5 4 4 4 4 3 3 3 2 2 2 2 1 1 0 -0 -0 -1 -1 -1 -2 -2 -2 -2 -2 -2 -3 -3 -3 -3 -3 -3 -3 -3 -3 -3 -3 -3 -3
Height
1522 1523 1524 1524 1525 1525 1526 1526 1526 1527 1527 1527 1527 1528 1528 1529 1529 1530 1531 1532 1533 1534 1535 1536 1537 1538 1539 1539 1539 1539 1540 1540 1540 1541 1541 1542 1542 1543 1543 1544 1544 1544 1544 1544 1544 1544 1544 1544 1544 1543 1543 1543 1543 1542 1542 1542 1541 1541 1541 1541 1540 1540 1539 1539 1539 1538 1538 1537 1536
1521 1522 1523 1523 1524 1524 1525 1525 1525 1526 1526 1526 1526 1527 1527 1528 1528 1529 1529 1530 1531 1532 1534 1535 1536 1536 1537 1537 1538 1538 1539 1539 1539 1539 1540 1540 1540 1541 1541 1542 1542 1542 1542 1542 1542 1542 1542 1542 1542 1542 1542 1541 1541 1541 1540 1540 1540 1540 1539 1539 1539 1539 1538 1538 1537 1537 1536 1535 1535
1520 1521 1522 1522 1523 1523 1524 1524 1524 1524 1525 1525 1526 1526 1526 1527 1527 1528 1528 1529 1530 1531 1532 1533 1534 1535 1536 1536 1537 1537 1537 1537 1538 1538 1538 1539 1539 1539 1539 1540 1540 1540 1540 1540 1540 1540 1540 1540 1540 1540 1540 1540 1539 1539 1539 1539 1539 1538 1538 1538 1537 1537 1537 1536 1536 1535 1534 1534 1534
1519 1520 1520 1521 1521 1522 1522 1523 1523 1524 1524 1524 1525 1525 1526 1526 1526 1527 1527 1528 1529 1530 1531 1532 1533 1534 1534 1535 1535 1535 1536 1536 1536 1536 1537 1537 1537 1537 1538 1538 1538 1539 1539 1539 1539 1539 1539 1539 1539 1539 1539 1539 1538 1538 1538 1537 1537 1537 1537 1536 1536 1535 1535 1535 1534 1534 1533 1533 1532
1518 1519 1519 1519 1520 1520 1521 1522 1522 1523 1523 1524 1524 1524 1524 1525 1525 1526 1526 1527 1527 1528 1529 1531 1532 1532 1533 1534 1534 1534 1534 1534 1534 1535 1535 1535 1535 1535 1536 1536 1536 1537 1537 1537 1538 1538 1538 1538 1538 1538 1537 1537 1537 1537 1536 1536 1536 1535 1535 1535 1534 1534 1534 1533 1533 1532 1531 1531 1530
1517 1517 1518 1519 1519 1519 1520 1520 1521 1522 1522 1523 1523 1523 1523 1524 1524 1524 1525 1525 1526 1527 1529 1529 1530 1531 1531 1532 1532 1532 1533 1533 1533 1533 1533 1533 1534 1534 1534 1534 1535 1535 1536 1536 1536 1536 1536 1536 1536 1536 1536 1536 1535 1535 1535 1534 1534 1534 1534 1533 1533 1533 1532 1532 1531 1530 1530 1529 1529
1516 1517 1517 1518 1518 1519 1519 1519 1520 1520 1521 1521 1521 1521 1522 1522 1523 1523 1524 1524 1525 1526 1527 1528 1528 1529 1529 1530 1530 1531 1531 1531 1531 1531 1532 1532 1532 1532 1532 1533 1533 1534 1534 1534 1535 1535 1535 1535 1535 1535 1534 1534 1534 1534 1534 1533 1533 1533 1532 1532 1531 1531 1531 1530 1529 1529 1528 1528 1527
1515 1516 1516 1517 1517 1517 1517 1518 1518 1519 1519 1519 1519 1520 1520 1521 1521 1522 1523 1524 1524 1525 1525 1526 1527 1527 1528 1528 1529 1529 1529 1529 1530 1530 1530 1530 1530 1530 1530 1531 1531 1532 1533 1533 1533 1534 1533 1533 1533 1533 1533 1533 1533 1532 1532 1532 1531 1531 1531 1530 1530 1529 1529 1528 1528 1527 1527 1526 1525
1514 1514 1515 1515 1515 1516 1516 1516 1517 1517 1517 1518 1518 1519 1519 1520 1520 1521 1522 1522 1523 1524 1524 1525 1525 1525 1526 1526 1526 1527 1527 1528 1528 1528 1529 1529 1529 1529 1529 1529 1530 1530 1531 1532 1532 1532 1532 1532 1532 1532 1532 1532 1531 1531 1531 1530 1530 1529 1529 1529 1529 1528 1527 1527 1526 1525 1525 1524 1523
1513 1513 1514 1514 1514 1514 1515 1515 1515 1516 1516 1516 1517 1518 1519 1519 1519 1520 1521 1521 1522 1523 1523 1523 1524 1524 1524 1524 1524 1525 1525 1526 1526 1527 1527 1527 1527 1527 1527 1527 1528 1529 1529 1530 1530 1531 1531 1531 1531 1530 1530 1530 1530 1530 1529 1529 1529 1528 1528 1528 1527 1526 1526 1525 1524 1524 1523 1522 1521
1512 1512 1512 1513 1513 1513 1514 1514 1514 1514 1515 1515 1516 1517 1517 1518 1519 1519 1520 1520 1521 1521 1521 1521 1522 1522 1522 1523 1523 1524 1524 1524 1525 1525 1525 1525 1525 1525 1525 1526 1527 1528 1528 1529 1529 1529 1529 1529 1529 1529 1529 1529 1529 1528 1528 1528 1527 1527 1526 1526 1526 1525 1524 1524 1523 1522 1521 1520 1519
1511 1511 1511 1512 1512 1512 1513 1513 1513 1513 1514 1514 1515 1516 1516 1517 1518 1518 1519 1519 1519 1519 1519 1520 1520 1520 1521 1521 1522 1522 1523 1523 1523 1523 1523 1523 1524 1524 1524 1524 1525 1526 1527 1528 1528 1528 1528 1528 1528 1528 1528 1527 1527 1527 1527 1526 1526 1525 1525 1524 1524 1524 1523 1522 1521 1520 1519 1518 1517
1510 1510 1510 1511 1511 1511 1511 1512 1512 1513 1513 1514 1514 1515 1515 1516 1517 1517 1517 1518 1518 1518 1518 1519 1519 1519 1519 1520 1520 1521 1521 1521 1522 1522 1522 1522 1522 1522 1523 1523 1524 1525 1526 1526 1526 1526 1526 1526 1526 1526 1526 1526 1526 1525 1525 1525 1524 1524 1524 1523 1522 1522 1521 1520 1519 1519 1518 1516 1515
1509 1509 1509 1510 1510 1510 1510 1511 1511 1512 1512 1513 1514 1514 1515 1515 1516 1516 1516 1516 1516 1517 1517 1517 1517 1518 1518 1519 1519 1519 1519 1520 1520 1520 1520 1520 1520 1521 1521 1522 1523 1524 1524 1525 1525 1525 1525 1525 1525 1525 1524 1524 1524 1524 1524 1523 1523 1522 1522 1521 1521 1520 1519 1519 1518 1517 1516 1514 1514
1508 1508 1509 1509 1509 1509 1509 1510 1510 1511 1511 1512 1513 1513 1514 1514 1514 1515 1515 1515 1515 1515 1515 1516 1516 1516 1517 1517 1518 1518 1518 1518 1518 1518 1518 1518 1519 1519 1520 1520 1521 1522 1523 1523 1524 1524 1524 1524 1523 1523 1523 1523 1523 1522 1522 1521 1521 1520 1520 1519 1519 1518 1517 1516 1516 1515 1514 1513 1512
1507 1507 1508 1508 1508 1508 1509 1509 1509 1510 1511 1511 1512 1512 1513 1513 1513 1513 1514 1514 1514 1514 1514 1514 1515 1515 1515 1516 1516 1516 1517 1517 1517 1517 1517 1517 1517 1518 1519 1519 1520 1521 1522 1522 1522 1522 1522 1522 1522 1522 1521 1521 1521 1521 1520 1520 1519 1519 1518 1517 1517 1516 1515 1514 1514 1513 1512 1511 1509
1506 1506 1507 1507 1507 1507 1508 1508 1509 1509 1510 1510 1511 1511 1511 1512 1512 1512 1512 1512 1513 1513 1513 1514 1514 1514 1514 1514 1515 1515 1515 1515 1515 1515 1515 1515 1516 1517 1517 1518 1519 1520 1520 1520 1520 1520 1520 1520 1520 1520 1520 1519 1519 1519 1519 1518 1517 1517 1516 1515 1514 1514 1513 1512 1511 1510 1509 1509 1507
1505 1505 1505 1506 1506 1506 1507 1507 1508 1508 1509 1509 1509 1510 1510 1510 1510 1511 1511 1511 1511 1512 1512 1512 1513 1513 1513 1513 1514 1514 1514 1514 1514 1514 1514 1514 1515 1516 1516 1517 1518 1519 1519 1519 1519 1519 1519 1519 1519 1519 1518 1518 1518 1517 1517 1516 1515 1514 1514 1513 1512 1511 1510 1510 1509 1508 1507 1506 1505
1504 1504 1504 1504 1505 1505 1506 1506 1507 1507 1508 1508 1508 1509 1509 1509 1509 1509 1509 1509 1510 1510 1511 1511 1511 1512 1512 1512 1512 1513 1513 1513 1513 1513 1514 1514 1514 1515 1516 1516 1517 1518 1518 1518 1518 1518 1518 1517 1517 1517 1516 1516 1516 1515 1515 1514 1513 1512 1512 1511 1510 1509 1508 1508 1507 1506 1505 1504 1503
1502 1503 1503 1503 1504 1504 1505 1505 1506 1506 1507 1507 1507 1507 1507 1508 1508 1508 1508 1508 1509 1509 1509 1509 1510 1510 1510 1511 1511 1511 1512 1512 1512 1512 1513 1513 1514 1514 1515 1515 1516 1516 1516 1516 1516 1516 1516 1516 1515 1515 1515 1514 1514 1513 1513 1512 1511 1510 1509 1509 1508 1507 1506 1505 1504 1504 1503 1502 1500
1501 1501 1501 1502 1502 1503 1504 1504 1505 1505 1505 1505 1506 1506 1506 1506 1506 1507 1507 1507 1507 1508 1508 1508 1509 1509 1509 1510 1510 1510 1510 1511 1511 1511 1512 1512 1513 1514 1514 1514 1515 1515 1515 1515 1515 1515 1514 1514 1514 1513 1513 1512 1512 1511 1510 1509 1509 1508 1507 1506 1505 1504 1504 1503 1502 1501 1500 1499 1498
1500 1500 1500 1501 1501 1502 1502 1503 1503 1504 1504 1504 1504 1504 1505 1505 1505 1505 1505 1506 1506 1506 1507 1507 1507 1508 1508 1509 1509 1509 1509 1510 1510 1510 1511 1512 1512 1513 1513 1513 1514 1514 1514 1514 1514 1513 1513 1513 1512 1512 1511 1510 1509 1509 1508 1507 1506 1505 1504 1504 1503 1502 1501 1500 1500 1499 1498 1497 1496
1499 1499 1499 1499 1500 1500 1501 1501 1502 1502 1503 1503 1503 1503 1504 1504 1504 1504 1504 1504 1505 1505 1506 1506 1507 1507 1508 1508 1508 1509 1509 1509 1509 1510 1510 1511 1511 1512 1512 1512 1512 1512 1512 1512 1512 1512 1511 1511 1510 1510 1509 1508 1507 1506 1506 1505 1504 1503 1502 1501 1500 1499 1499 1498 1497 1496 1495 1494 1493
1498 1498 1498 1499 1499 1499 1500 1500 1500 1501 1501 1502 1502 1502 1502 1503 1503 1503 1503 1504 1504 1504 1505 1505 1506 1506 1507 1507 1507 1508 1508 1508 1509 1509 1509 1510 1510 1511 1511 1511 1511 1511 1511 1511 1511 1510 1510 1509 1509 1508 1507 1506 1505 1504 1503 1502 1501 1500 1499 1499 1498 1497 1496 1495 1494 1493 1492 1491 1490
1496 1497 1497 1497 1498 1498 1499 1499 1499 1499 1500 1500 1501 1501 1501 1501 1502 1502 1502 1503 1503 1504 1504 1504 1505 1505 1506 1506 1507 1507 1507 1508 1508 1508 1509 1509 1509 1509 1510 1510 1510 1510 1510 1509 1509 1509 1508 1508 1507 1506 1505 1504 1503 1502 1501 1500 1499 1498 1497 1496 1495 1494 1493 1492 1491 1490 1489 1489 1488
1495 1496 1496 1496 1497 1497 1497 1498 1498 1499 1499 1499 1499 1500 1500 1500 1501 1501 1502 1502 1503 1503 1504 1504 1504 1505 1505 1505 1506 1506 1506 1507 1507 1508 1508 1508 1509 1509 1509 1509 1509 1509 1509 1508 1508 1507 1507 1506 1505 1504 1503 1502 1501 1500 1499 1498 1497 1496 1495 1494 1492 1491 1490 1489 1488 1487 1487 1486 1485
1494 1495 1495 1495 1496 1496 1496 1497 1497 1497 1498 1498 1499 1499 1499 1500 1500 1500 1501 1501 1502 1502 1503 1503 1504 1504 1504 1505 1505 1505 1506 1506 1507 1507 1507 1507 1507 1507 1507 1508 1507 1507 1507 1507 1506 1506 1505 1504 1503 1502 1501 1500 1499 1498 1497 1495 1494 1493 1492 1491 1489 1488 1487 1486 1485 1484 1484 1483 1482
1494 1494 1494 1494 1495 1495 1495 1496 1496 1496 1497 1497 1498 1498 1499 1499 1499 1500 1500 1501 1501 1502 1502 1503 1503 1504 1504 1504 1504 1505 1505 1506 1506 1506 1506 1506 1506 1506 1506 1506 1506 1506 1506 1505 1505 1504 1503 1502 1501 1500 1499 1498 1496 1495 1494 1492 1491 1490 1489 1488 1486 1485 1484 1483 1482 1481 1480 1480 1479
1493 1493 1493 1493 1494 1494 1494 1494 1495 1495 1496 1496 1497 1497 1498 1498 1499 1499 1500 1500 1501 1501 1502 1502 1502 1503 1503 1504 1504 1504 1504 1505 1505 1505 1505 1505 1505 1505 1505 1505 1505 1504 1504 1504 1503 1502 1501 1500 1499 1498 1497 1496 1494 1492 1490 1489 1488 1487 1485 1484 1483 1482 1481 1480 1479 1479 1478 1477 1476
1492 1492 1492 1492 1493 1493 1493 1494 1494 1494 1495 1496 1496 1497 1497 1498 1498 1499 1499 1500 1500 1501 1501 1501 1502 1502 1502 1503 1503 1504 1504 1504 1504 1504 1504 1504 1504 1504 1504 1504 1503 1503 1502 1502 1501 1500 1499 1498 1497 1496 1495 1494 1492 1490 1488 1487 1485 1484 1482 1481 1480 1479 1478 1477 1476 1475 1475 1474 1473
1491 1491 1491 1491 1492 1492 1492 1493 1494 1494 1494 1495 1496 1496 1497 1497 1498 1498 1499 1499 1500 1500 1500 1501 1501 1502 1502 1502 1503 1503 1503 1503 1503 1503 1503 1503 1503 1503 1502 1502 1502 1501 1501 1500 1499 1498 1497 1496 1495 1494 1492 1491 1489 1488 1486 1484 1483 1481 1480 1479 1477 1476 1475 1474 1474 1473 1472 1471 1471
1490 1490 1491 1491 1491 1491 1492 1492 1493 1494 1494 1494 1495 1496 1496 1497 1497 1498 1498 1499 1499 1499 1500 1500 1501 1501 1502 1502 1502 1502 1502 1502 1502 1502 1502 1502 1501 1501 1501 1500 1500 1499 1499 1498 1497 1496 1495 1494 1492 1491 1490 1488 1487 1485 1484 1482 1481 1479 1478 1477 1475 1474 1474 1472 1471 1470 1469 1469 1468
1490 1490 1490 1490 1490 1491 1491 1492 1493 1493 1494 1494 1495 1495 1496 1496 1497 1497 1498 1498 1499 1499 1499 1500 1500 1501 1501 1501 1501 1502 1502 1502 1501 1501 1501 1500 1500 1499 1499 1499 1498 1498 1497 1496 1494 1493 1492 1491 1489 1488 1487 1485 1484 1482 1481 1479 1478 1477 1475 1474 1473 1472 1471 1470 1469 1469 1468 1467 1466
1489 1489 1490 1490 1490 1491 1491 1492 1492 1493 1494 1494 1494 1495 1496 1496 1497 1497 1498 1498 1499 1499 1499 1500 1500 1500 1500 1501 1501 1501 1501 1500 1500 1500 1499 1499 1498 1498 1497 1496 1496 1495 1494 1493 1492 1490 1489 1488 1487 1485 1484 1483 1481 1480 1478 1477 1475 1474 1473 1472 1471 1470 1469 1468 1467 1466 1466 1465 1464
1489 1489 1490 1490 1490 1491 1491 1492 1492 1493 1494 1494 1494 1495 1495 1496 1496 1497 1497 1498 1498 1499 1499 1499 1499 1500 1500 1500 1500 1500 1499 1499 1499 1499 1498 1497 1496 1495 1495 1494 1493 1493 1492 1491 1489 1488 1487 1485 1484 1483 1482 1480 1479 1477 1476 1474 1473 1472 1470 1469 1468 1468 1467 1466 1465 1464 1464 1463 1462
1489 1490 1490 1490 1491 1491 1492 1492 1493 1493 1494 1494 1495 1495 1496 1496 1497 1497 1497 1498 1498 1499 1499 1499 1499 1499 1499 1499 1499 1499 1498 1498 1497 1497 1496 1495 1494 1493 1492 1492 1491 1490 1489 1488 1487 1485 1484 1483 1482 1480 1479 1478 1476 1474 1473 1472 1470 1469 1468 1467 1466 1465 1464 1464 1463 1462 1461 1460 1460
1490 1490 1491 1491 1491 1492 1492 1493 1493 1494 1494 1495 1495 1496 1496 1496 1497 1497 1498 1498 1498 1498 1498 1498 1499 1498 1498 1498 1498 1497 1497 1496 1496 1495 1494 1494 1492 1491 1490 1489 1488 1488 1487 1486 1484 1483 1482 1480 1479 1478 1476 1475 1473 1472 1470 1469 1468 1466 1465 1464 1463 1462 1462 1461 1460 1459 1459 1458 1457
1491 1491 1492 1492 1492 1493 1493 1494 1494 1494 1495 1495 1496 1496 1496 1497 1497 1497 1498 1498 1498 1498 1498 1498 1498 1497 1497 1497 1496 1496 1495 1495 1494 1493 1492 1491 1490 1489 1488 1486 1485 1485 1484 1483 1482 1480 1479 1478 1477 1475 1474 1473 1471 1469 1468 1466 1465 1464 1463 1461 1460 1459 1459 1458 1458 1457 1456 1455 1455
1492 1492 1493 1493 1493 1494 1494 1494 1495 1495 1495 1496 1496 1496 1497 1497 1497 1497 1497 1497 1497 1497 1497 1497 1496 1496 1496 1495 1495 1494 1494 1493 1492 1491 1490 1489 1488 1487 1485 1484 1482 1482 1481 1480 1479 1478 1476 1475 1474 1473 1472 1470 1469 1467 1465 1464 1463 1461 1460 1459 1458 1457 1456 1455 1455 1454 1453 1453 1452
1493 1493 1494 1494 1494 1494 1494 1495 1495 1495 1496 1496 1496 1496 1496 1497 1497 1497 1496 1496 1496 1496 1496 1495 1495 1495 1494 1494 1493 1492 1492 1491 1490 1489 1488 1487 1485 1484 1483 1481 1480 1479 1478 1477 1476 1475 1474 1472 1471 1470 1469 1468 1466 1465 1463 1462 1460 1459 1457 1456 1455 1454 1453 1453 1452 1452 1451 1450 1449
1494 1494 1494 1494 1494 1495 1495 1495 1495 1496 1496 1496 1496 1496 1496 1496 1496 1496 1496 1495 1495 1495 1494 1494 1494 1493 1492 1492 1491 1490 1489 1488 1488 1487 1485 1484 1483 1482 1480 1479 1477 1476 1475 1474 1473 1472 1471 1469 1469 1468 1466 1465 1464 1462 1461 1460 1458 1457 1455 1454 1454 1452 1451 1450 1449 1449 1449 1448 1447
Wind_Speed
39 39 38 38 37 37 37 36 36 36 36 36 36 36 36 35 34 33 32 31 31 29 28 26 25 23 23 24 25 26 27 27 28 28 28 29 29 29 28 28 27 26 25 24 23 21 20 19 18 17 17 16 16 16 16 16 16 16 16 16 16 16 16 17 17 18 20 21 22
39 39 38 38 37 37 37 37 37 37 37 36 36 36 36 35 34 34 33 32 31 30 28 26 25 24 23 23 24 25 25 26 27 27 27 28 28 29 29 28 28 27 26 25 23 22 21 20 19 18 17 17 17 17 16 16 16 16 16 17 16 17 17 17 18 19 20 21 22
39 39 38 38 38 37 37 37 38 37 37 37 36 36 36 35 34 34 33 32 31 29 28 27 25 24 23 23 23 23 24 25 26 26 27 27 28 28 29 29 28 28 27 25 24 23 21 20 19 18 18 18 17 17 17 17 17 17 17 17 17 17 17 18 18 19 20 22 23
39 39 38 38 38 38 38 37 37 37 37 36 36 36 35 35 34 34 33 32 31 30 28 27 25 24 23 23 23 23 23 24 25 25 26 27 28 28 29 29 29 28 27 26 24 23 22 20 19 19 18 18 17 17 17 17 17 17 17 17 17 17 17 18 19 20 21 22 23
39 39 38 38 38 38 37 37 36 36 36 36 36 36 35 35 34 34 33 32 31 30 28 26 25 24 24 23 23 23 23 24 24 25 26 27 27 28 29 29 29 28 27 26 24 23 22 21 20 19 19 18 18 17 17 17 18 18 17 18 18 18 18 19 19 20 22 23 24
38 38 38 37 37 36 36 36 35 35 35 35 35 35 35 35 34 34 33 32 31 29 28 26 25 25 24 24 23 23 24 24 24 25 26 26 27 28 29 29 29 28 27 26 24 23 22 21 20 19 19 18 18 18 18 18 18 18 18 18 18 18 19 19 20 21 22 23 24
37 37 36 36 36 35 35 35 34 34 34 34 34 34 34 34 34 34 33 32 31 29 28 27 26 26 25 24 24 24 24 25 25 25 26 26 27 28 29 29 29 29 28 26 24 23 22 21 20 19 19 18 18 18 18 18 18 18 18 18 19 19 19 20 21 22 23 24 25
35 35 35 35 35 35 34 34 33 33 33 33 33 33 34 34 33 33 32 31 30 30 29 28 27 27 26 25 25 25 25 25 25 25 25 26 27 28 29 29 29 29 28 26 24 23 22 21 20 19 19 18 18 18 18 19 19 19 19 19 19 19 20 21 22 23 24 25 26
35 34 34 34 34 33 33 33 33 32 32 33 33 33 33 33 32 32 32 31 30 30 29 28 28 27 26 26 26 26 26 25 25 25 25 25 26 27 28 29 29 29 28 26 24 23 22 21 20 19 19 18 18 18 19 19 19 19 19 19 19 20 21 21 22 23 24 25 26
34 34 34 33 33 33 32 32 32 32 32 32 32 32 32 32 32 31 31 30 30 29 29 28 28 27 27 27 26 26 26 25 25 24 24 25 26 27 28 29 29 29 27 26 24 23 21 20 19 19 19 18 18 18 19 19 19 19 19 19 20 20 21 22 23 24 25 26 27
33 33 33 33 33 32 32 32 32 32 32 32 32 32 32 31 31 31 30 30 29 29 29 28 28 27 27 27 26 26 25 25 24 24 24 24 25 26 27 28 28 27 26 25 23 22 21 20 19 19 19 19 19 19 19 19 19 19 20 20 20 21 22 23 24 25 26 27 28
32 32 33 32 32 32 33 33 33 33 33 32 32 32 32 31 31 30 30 29 29 29 28 28 27 27 26 26 25 25 25 24 24 24 24 24 24 25 26 26 27 26 25 24 23 22 20 19 19 19 18 19 19 19 19 19 20 20 20 20 21 22 23 24 25 26 27 28 29
30 31 32 32 33 33 34 34 34 34 34 33 33 32 32 31 30 30 29 29 29 28 28 27 27 26 26 25 25 25 25 24 24 24 23 23 23 24 24 25 25 25 24 23 22 21 20 19 19 18 18 19 19 19 19 20 20 20 21 21 22 23 24 25 26 27 28 29 30
28 30 31 32 33 34 34 34 35 35 34 34 33 32 32 31 30 30 29 29 28 28 27 26 26 25 25 25 25 25 24 24 24 23 23 23 23 23 23 24 24 24 23 22 21 20 20 19 19 18 18 18 19 19 20 20 20 21 22 22 23 24 25 26 27 28 29 30 31
26 28 29 31 32 33 34 34 35 35 34 34 33 32 31 31 30 29 29 28 27 27 26 26 25 25 25 25 25 24 24 24 23 23 22 22 22 22 22 22 22 22 22 21 21 20 19 19 18 18 18 19 19 19 20 21 21 22 22 23 24 25 26 27 28 29 30 31 32
25 26 27 29 30 32 33 33 34 34 34 33 32 31 31 30 29 28 28 27 26 26 26 25 25 25 25 25 24 24 24 24 23 23 22 22 21 21 21 21 21 21 21 20 20 19 19 18 18 18 19 19 19 20 20 21 22 23 23 24 25 26 27 28 29 30 31 32 33
23 24 26 27 28 30 31 31 32 32 32 31 30 30 29 28 28 27 27 26 26 25 25 25 25 24 24 24 24 24 23 23 23 22 21 21 20 20 20 20 20 20 20 19 19 19 18 18 18 19 19 19 20 20 21 22 23 23 24 25 26 27 28 29 30 31 32 33 33
22 23 24 25 26 27 28 28 29 29 29 29 28 28 27 27 26 26 25 25 25 24 24 24 24 24 23 23 23 23 23 22 22 21 20 20 19 19 19 19 19 19 19 18 18 18 18 18 19 19 19 20 20 21 22 22 23 24 25 26 27 28 29 30 31 32 33 33 34
21 21 22 23 24 24 25 25 26 26 26 26 26 26 25 25 25 24 24 24 24 23 23 23 22 22 22 22 22 22 22 21 21 20 19 18 18 18 18 18 18 18 18 18 18 18 18 18 19 19 20 20 21 22 22 23 24 25 26 27 28 30 31 31 32 33 34 34 35
19 20 20 21 21 22 22 22 23 23 23 23 24 24 24 23 23 23 23 23 22 21 21 21 21 21 21 21 21 21 21 20 19 19 18 17 17 17 17 17 17 17 18 18 18 18 18 19 19 20 20 21 22 22 23 24 26 27 28 29 30 31 32 33 33 34 34 35 35
17 18 18 19 19 19 19 20 20 20 21 21 21 21 21 21 21 21 21 20 20 20 19 20 20 20 20 20 20 20 19 19 18 17 17 16 16 16 16 16 17 17 17 18 18 18 18 19 19 20 21 22 23 24 25 26 27 28 29 30 31 32 33 34 34 34 35 35 35
16 16 17 17 17 17 17 17 17 18 18 19 19 19 19 19 19 19 19 18 18 18 18 19 19 19 19 19 19 19 18 17 16 16 15 15 15 15 15 16 16 17 17 17 18 18 18 19 20 20 21 23 24 25 26 27 29 30 31 32 33 34 34 35 35 35 35 35 35
14 15 15 15 15 15 15 15 15 16 16 16 17 17 17 17 17 17 17 17 17 17 18 18 18 18 18 18 18 17 16 16 15 14 14 14 14 14 15 15 16 16 17 17 17 18 18 19 20 21 22 24 25 26 28 29 30 31 33 34 34 35 35 35 36 36 35 35 35
14 14 14 14 14 14 14 14 14 14 15 15 15 15 15 15 15 15 16 16 16 16 17 17 17 17 17 17 17 16 15 14 14 13 13 13 13 14 14 15 16 16 16 17 17 18 19 20 21 22 24 25 27 28 29 31 32 33 34 35 35 36 36 36 36 36 35 35 35
13 13 14 14 14 14 14 14 14 14 14 14 14 14 14 14 14 14 14 15 15 15 16 16 17 16 16 16 15 14 14 13 12 12 12 13 13 14 14 15 15 16 16 17 18 18 20 21 22 24 25 27 28 30 31 32 33 34 35 35 36 36 36 36 36 36 35 35 34
13 13 13 13 13 13 13 13 13 13 14 14 14 13 13 13 13 13 13 14 14 15 15 15 15 15 15 14 14 13 12 12 11 11 12 12 13 13 14 15 15 16 17 17 18 19 21 22 24 25 27 28 30 31 32 33 34 35 35 36 36 36 36 36 36 36 35 34 34
12 13 13 13 13 13 13 13 13 13 13 13 13 13 12 12 12 12 12 13 13 13 14 14 14 13 13 12 12 11 10 10 10 11 11 12 13 13 14 15 16 17 17 18 20 21 22 24 25 27 29 30 31 33 34 35 35 35 36 36 36 36 36 36 36 35 34 34 33
12 12 13 13 13 13 13 13 13 13 13 12 12 11 11 10 10 11 11 11 12 12 12 12 12 11 11 10 10 9 9 9 10 10 11 12 13 14 15 16 17 18 19 20 21 23 24 26 27 28 30 31 33 34 35 35 36 36 36 36 36 36 36 36 35 35 34 33 33
11 12 12 13 13 13 13 13 13 12 12 11 10 9 9 9 9 9 10 10 10 10 10 10 10 9 9 8 8 8 8 9 9 10 11 13 14 15 16 17 18 19 21 22 23 25 26 27 28 29 30 31 33 34 35 36 36 36 36 36 36 36 36 35 35 34 34 33 33
10 10 11 11 11 12 12 11 11 10 9 8 8 7 7 7 7 8 8 8 9 8 8 8 7 7 6 6 6 7 8 9 10 11 12 13 15 16 17 18 20 21 22 24 25 26 28 29 30 30 31 32 32 33 34 35 35 35 36 36 36 36 35 35 35 34 34 34 33
8 8 9 9 9 9 9 9 8 7 7 6 6 5 5 6 6 6 6 6 6 6 6 5 5 5 5 5 6 7 8 9 10 12 13 15 16 17 19 20 22 23 24 25 26 28 29 29 30 31 31 32 32 32 33 33 33 34 34 35 35 35 35 35 35 35 34 34 34
6 6 6 6 6 6 6 6 5 5 4 4 4 4 4 4 4 4 4 4 4 3 3 3 3 3 4 5 6 7 9 10 12 13 15 16 18 20 21 22 23 24 25 26 27 28 29 30 31 32 32 32 32 32 32 32 32 33 33 34 34 34 34 34 35 35 35 35 35
4 4 4 4 4 3 3 3 2 2 1 1 1 2 2 2 2 1 1 0 0 1 1 1 2 3 4 6 7 9 10 12 13 15 17 18 20 22 23 24 25 26 27 28 29 29 30 31 32 32 32 32 32 32 32 32 32 32 33 33 33 33 34 34 34 35 35 35 36
2 2 1 1 0 0 1 1 2 2 2 2 2 2 2 2 2 2 2 2 2 1 0 1 3 4 6 7 9 11 12 14 16 17 19 21 22 23 25 25 26 27 28 29 29 30 31 31 32 32 31 31 31 31 31 31 32 32 32 33 33 33 33 34 34 35 35 35 36
3 3 3 4 4 5 5 6 6 6 6 6 5 5 5 5 5 4 4 3 2 1 2 3 5 6 8 10 11 13 15 16 18 19 21 22 24 25 26 27 28 28 29 29 30 30 31 31 31 30 30 30 30 30 30 31 31 31 32 32 32 33 33 33 34 34 35 35 35
7 7 8 8 9 9 9 10 9 9 9 9 8 8 7 6 5 4 3 2 2 3 4 6 7 9 11 12 14 16 17 18 20 21 22 24 25 26 27 28 29 29 29 29 30 30 30 30 30 29 29 29 29 30 30 30 30 31 31 32 32 32 32 33 33 33 34 34 34
10 11 11 12 12 12 12 12 11 11 10 10 9 7 6 5 4 4 4 4 5 6 7 9 10 12 13 15 16 17 18 20 21 22 23 25 26 27 29 29 30 30 30 30 30 30 29 29 29 29 28 28 29 29 29 29 30 31 31 32 32 32 32 32 32 32 32 33 33
12 13 13 13 13 13 12 12 11 10 9 8 7 6 6 5 5 5 5 6 7 8 10 11 12 14 15 16 17 19 20 21 22 24 25 26 27 28 29 30 31 31 30 29 29 29 29 29 28 28 27 27 28 28 28 29 30 31 31 31 31 31 31 31 31 32 32 32 32
13 13 13 13 12 12 11 10 10 9 8 7 6 6 5 5 5 6 7 8 9 10 12 13 14 15 17 18 19 20 21 22 24 25 26 27 28 28 29 30 30 30 30 29 29 28 28 28 27 27 27 26 27 27 27 28 29 30 31 31 31 32 31 31 31 32 32 32 32
13 12 12 11 11 10 10 9 8 7 7 6 6 6 6 6 7 8 9 10 11 12 14 15 16 17 18 20 21 22 23 24 25 26 26 27 27 28 28 29 29 30 29 28 28 28 27 27 27 26 26 25 26 26 26 27 29 30 31 31 32 32 33 32 32 33 33 33 33
11 11 10 10 9 9 8 8 7 6 6 6 6 7 7 8 9 10 11 12 13 14 15 17 18 19 20 22 23 24 25 25 26 26 26 27 27 27 28 28 29 29 29 28 28 27 27 27 26 26 25 24 24 25 25 26 29 30 31 32 32 33 34 34 34 34 34 34 33
Wind_Direction
230 231 232 233 234 235 237 239 241 244 245 247 248 249 250 251 252 252 252 252 251 251 251 251 252 251 250 249 248 247 248 248 248 248 247 246 245 244 243 242 241 242 244 246 249 252 255 258 262 267 272 277 282 285 288 289 289 290 292 293 295 298 301 304 308 310 313 315 316
230 232 233 234 236 237 238 240 242 244 246 248 249 250 252 253 254 255 255 255 255 255 255 254 254 253 252 250 249 249 249 249 249 249 249 248 247 246 245 243 242 242 243 246 248 251 254 257 261 266 271 276 280 283 285 287 287 288 289 290 293 295 298 302 305 308 311 313 314
231 233 234 235 237 238 239 240 242 244 246 248 250 251 252 254 255 256 257 258 258 258 257 256 255 254 253 252 251 250 250 250 250 250 249 249 248 247 245 243 242 241 243 245 247 250 253 256 260 265 270 274 279 282 283 284 285 286 286 288 290 293 296 300 303 306 309 311 312
232 234 235 236 238 239 241 243 244 246 248 249 250 251 252 253 254 256 257 258 258 258 258 257 257 256 255 254 252 252 251 250 250 250 249 249 248 247 246 243 242 241 242 244 246 249 251 255 259 264 269 273 277 280 281 282 282 283 284 286 288 291 294 298 301 304 307 309 311
234 235 237 238 240 242 244 245 247 248 249 250 250 251 251 252 253 254 255 256 257 257 258 259 258 257 256 254 253 252 251 251 250 250 249 248 248 247 245 243 241 241 241 243 245 247 250 254 258 263 268 272 276 278 279 279 280 281 283 284 286 289 293 297 300 303 306 308 310
235 237 239 240 242 244 245 247 248 249 250 250 250 251 251 251 252 252 254 255 257 258 259 259 258 257 256 254 253 252 252 252 251 250 250 249 248 246 244 242 241 240 240 242 244 247 250 253 258 262 267 271 275 276 277 277 278 279 281 283 285 288 292 296 299 302 304 306 308
237 238 240 241 243 245 246 248 248 249 249 250 250 250 251 251 252 253 254 256 258 259 259 259 258 257 256 254 253 253 253 253 253 253 252 250 248 246 243 241 240 239 240 241 243 246 249 253 258 263 267 271 274 275 276 276 277 278 280 282 285 288 292 295 298 301 303 305 307
239 240 241 243 244 246 247 248 249 248 248 249 249 250 251 252 253 254 256 257 258 259 259 259 259 258 257 256 255 255 255 255 255 255 255 253 250 247 243 241 239 238 239 241 243 246 250 254 259 263 268 271 274 275 275 276 277 278 280 282 285 289 292 295 298 300 302 304 306
239 241 242 244 245 247 248 249 249 248 248 249 249 250 252 253 254 255 257 258 260 261 262 262 261 260 259 258 257 256 257 257 258 258 258 256 252 248 243 240 238 238 238 241 243 247 251 255 260 264 268 271 274 274 275 276 276 278 280 282 285 289 292 295 298 300 302 304 306
240 241 243 244 245 246 247 248 248 248 248 249 250 251 252 253 255 257 258 260 262 263 263 263 263 262 260 258 258 257 258 259 260 261 260 258 254 249 244 240 238 237 238 241 245 249 253 257 261 266 269 272 274 274 275 276 277 278 281 283 285 288 292 295 298 301 303 304 305
242 243 244 244 245 246 246 246 246 247 247 248 249 251 252 254 256 258 260 263 263 264 264 264 263 262 260 259 259 259 260 262 263 263 263 260 256 251 245 241 238 238 239 242 246 251 255 259 263 268 271 273 274 275 275 276 278 279 281 283 286 289 292 295 299 301 303 304 305
244 244 245 245 245 245 244 244 244 245 246 247 249 251 253 255 257 260 262 263 264 265 265 265 264 262 261 261 261 261 263 264 265 266 265 262 258 252 246 241 239 238 240 244 248 253 257 261 266 270 273 275 276 276 277 278 279 280 282 284 287 290 293 296 299 301 303 304 305
245 245 245 245 245 245 244 244 245 246 247 248 250 252 255 257 260 262 263 264 265 266 266 265 264 263 262 262 263 264 265 267 268 268 267 263 258 252 246 241 239 239 241 245 250 255 259 264 268 271 274 276 277 278 278 279 280 282 284 286 289 292 295 298 300 302 302 303 304
246 246 246 246 246 246 246 246 247 248 249 251 253 255 257 260 262 264 265 266 266 266 265 265 264 264 264 264 265 266 268 270 271 270 268 264 258 252 245 241 240 240 243 247 252 257 262 266 270 273 275 277 278 279 280 281 282 283 286 288 291 294 297 299 301 301 302 303 304
248 248 248 248 247 247 248 249 250 251 252 254 256 258 260 262 264 265 266 266 266 266 266 265 265 265 265 266 267 269 271 272 272 271 268 263 257 251 246 242 241 243 246 251 256 261 265 269 272 274 276 278 279 280 281 282 284 286 288 291 294 296 298 300 301 302 302 302 303
250 250 250 249 249 250 250 251 252 254 255 257 259 261 262 263 265 266 266 266 267 267 266 266 266 266 267 268 270 271 273 274 274 272 268 263 257 251 246 244 244 246 250 255 260 264 268 271 274 275 277 279 280 281 283 284 286 288 291 293 296 298 299 300 301 301 302 302 302
253 252 252 252 251 252 252 253 255 256 258 259 260 262 263 264 265 266 267 267 268 268 268 268 268 268 269 271 272 274 276 276 276 273 268 263 257 252 248 247 248 251 255 259 263 267 270 273 275 277 279 280 282 283 285 287 289 291 294 296 297 298 300 300 301 302 302 302 302
256 255 255 254 254 254 255 256 257 258 259 261 262 263 264 265 266 267 269 269 270 270 271 271 271 271 271 273 275 277 279 279 278 274 269 264 258 254 251 250 252 255 259 263 267 270 273 275 277 279 281 282 284 286 287 289 292 294 296 297 298 299 300 301 301 301 302 302 302
260 259 258 257 257 257 257 258 259 260 261 262 263 264 265 266 268 270 271 272 273 273 273 273 273 273 274 275 278 280 281 281 279 275 269 264 259 255 253 253 256 259 262 266 269 273 275 278 280 282 284 285 287 289 290 292 294 296 297 298 299 299 300 300 301 301 301 301 301
263 262 261 261 261 260 260 260 261 262 262 263 264 265 267 269 271 273 274 275 276 276 275 274 274 274 275 277 279 281 282 281 278 274 268 263 259 256 256 257 259 262 266 269 273 276 279 281 283 285 286 288 290 291 293 295 296 297 298 299 299 300 300 300 300 300 300 300 301
264 264 265 265 264 263 263 263 263 263 263 264 265 267 269 271 273 275 276 277 276 275 274 273 274 275 276 278 281 282 282 281 277 273 267 263 260 258 258 260 262 266 269 273 276 279 282 284 286 287 289 291 292 294 295 296 297 298 299 299 299 300 300 300 300 300 300 300 300
266 266 266 266 266 266 266 265 264 264 264 265 266 268 270 272 274 275 275 275 274 273 273 273 274 276 278 280 282 283 283 281 277 272 267 263 260 259 260 263 266 270 273 277 280 283 285 287 288 290 291 293 294 295 296 297 298 299 299 300 300 300 300 300 300 300 299 300 300
268 268 267 268 268 268 268 267 266 265 265 266 268 269 271 272 273 274 274 273 273 273 274 275 276 278 280 282 283 283 282 279 275 270 265 262 260 261 264 267 271 275 278 281 284 286 287 289 290 292 293 294 295 296 297 298 299 299 300 300 300 300 300 299 299 299 300 300 300
270 268 268 269 269 270 270 269 269 268 268 269 270 271 272 273 273 273 273 274 274 275 276 276 278 279 281 282 283 283 281 278 273 268 264 263 263 265 269 273 276 279 282 285 287 288 290 291 292 294 295 296 297 298 299 299 300 300 300 300 300 300 300 300 300 300 300 300 300
271 270 269 269 269 270 270 270 270 270 271 271 272 272 273 273 274 274 275 275 276 277 278 279 280 281 283 283 284 283 280 277 272 268 265 265 267 270 274 277 280 283 285 287 289 290 292 293 294 295 296 297 298 299 299 300 300 300 300 299 299 299 300 300 300 300 301 301 301
271 270 269 268 268 269 269 269 270 270 271 272 272 273 274 274 275 276 276 277 278 279 280 281 283 284 285 285 285 282 279 275 271 268 267 269 272 275 278 281 283 285 287 289 291 292 293 294 295 297 298 299 299 299 299 299 299 299 299 299 299 300 300 300 301 302 302 302 301
271 269 268 267 266 266 266 266 267 267 268 269 271 273 274 275 276 278 279 280 281 282 283 285 286 287 287 286 284 281 276 273 270 269 270 273 276 279 281 283 285 287 289 291 292 294 295 296 298 299 300 300 300 299 299 299 299 299 300 300 300 300 301 301 302 303 303 302 302
271 269 268 266 264 263 262 262 262 263 265 267 270 273 275 277 279 280 282 284 285 287 288 289 289 289 288 285 282 277 274 271 270 272 274 277 279 282 284 286 288 290 292 294 295 297 298 299 300 301 301 301 301 300 300 300 301 301 301 301 302 302 302 303 303 303 304 304 303
272 270 267 265 262 261 260 259 259 261 263 266 270 273 276 280 282 285 287 288 290 291 292 292 291 288 285 282 278 274 272 272 274 277 279 281 283 285 287 289 291 293 295 297 298 300 300 301 301 301 301 301 301 301 302 302 302 303 303 303 303 303 303 304 304 304 305 305 305
277 273 268 265 262 260 258 258 258 259 262 266 270 275 279 283 287 289 291 292 293 294 293 291 287 284 280 277 274 273 274 277 280 282 284 286 288 289 291 293 295 296 298 300 301 301 301 301 301 301 301 301 302 302 302 303 303 304 304 304 304 304 305 305 305 305 305 306 306
280 275 270 266 261 258 256 256 256 258 261 266 271 278 283 287 290 292 294 293 293 290 287 284 281 278 276 274 275 277 279 282 284 287 289 290 292 293 295 296 297 299 300 301 301 301 301 301 301 301 302 302 303 303 303 303 303 304 304 304 304 305 305 305 305 305 305 306 306
286 280 273 267 261 257 256 255 254 256 260 266 273 281 286 290 292 294 293 291 286 283 277 275 274 274 275 277 279 282 284 287 289 291 293 294 295 296 297 298 299 300 301 302 301 301 301 302 302 302 303 304 304 304 303 303 303 303 303 303 303 303 303 303 304 304 304 304 304
300 292 281 270 261 258 255 250 246 245 247 260 273 283 289 292 296 295 289 278 252 248 254 259 268 274 279 282 285 287 290 292 294 295 296 297 298 299 299 300 301 302 302 302 302 302 303 303 304 304 305 305 305 305 304 304 303 303 303 302 302 302 302 302 302 302 302 302 302
339 337 329 311 275 136 120 117 119 116 111 109 105 102 98 101 103 107 108 111 113 121 216 275 282 286 289 291 293 295 296 297 298 299 299 300 300 301 301 302 302 303 304 304 304 304 304 305 305 305 306 306 305 305 304 304 303 303 303 302 302 302 301 301 300 300 300 300 300
53 67 78 86 91 94 97 99 101 102 102 102 102 103 104 105 105 104 103 99 89 29 315 303 300 300 300 301 301 301 301 301 301 302 302 302 302 302 302 302 303 303 304 304 305 305 305 305 306 306 306 306 305 304 304 304 303 303 302 302 302 301 300 300 299 299 299 298 298
83 87 91 94 95 97 99 99 101 102 102 102 102 102 101 99 96 88 75 49 8 335 320 314 310 308 307 305 304 304 303 303 303 303 303 303 303 303 302 302 302 303 304 304 305 305 305 305 306 306 306 305 305 304 303 303 302 302 301 301 300 300 300 299 299 299 298 298 298
92 94 96 97 98 98 99 100 100 99 98 97 95 91 85 77 65 47 23 357 337 324 317 313 310 308 306 304 304 303 303 303 304 303 303 303 303 302 302 302 302 302 303 304 305 305 305 306 306 306 306 306 305 304 303 303 302 301 300 300 300 300 300 300 300 300 300 299 300
96 96 96 96 96 96 95 94 92 89 86 81 75 67 56 42 25 6 350 334 323 316 312 309 307 306 304 304 303 303 303 304 303 303 303 303 302 302 302 302 302 303 304 306 306 306 307 307 307 307 307 306 305 304 303 302 301 301 300 300 300 300 301 301 302 302 302 302 302
95 94 92 91 89 87 84 81 77 72 65 59 50 39 25 9 352 339 329 321 316 312 310 308 307 306 305 305 305 304 304 304 304 303 303 303 303 303 304 304 305 306 307 308 308 308 308 308 308 308 307 306 305 304 303 302 301 301 301 301 301 302 303 303 303 303 303 303 303
91 89 86 83 79 75 71 65 59 52 44 34 22 9 355 343 334 326 320 317 314 312 310 309 308 307 307 306 305 305 304 304 304 304 305 305 305 306 306 307 307 308 309 309 310 309 309 308 308 308 307 306 306 305 304 303 302 302 301 302 302 303 303 303 303 303 303 303 303
85 81 77 72 68 63 57 51 42 33 22 9 358 347 339 332 327 322 319 317 314 312 311 310 308 308 307 307 306 306 306 306 306 306 307 307 308 308 309 309 309 310 310 310 310 310 309 309 309 309 309 309 308 307 305 304 303 302 301 302 302 302 302 303 303 302 302 302 302